Location: Vesunti
(61.5000°N, 22.8333°E)
Time: 00:50:29
(UTC+00:00)

Cosmos 2219 Rocket - Pass Details

Date: 17 February 2020
Orbit: 828 x 846 km, 71.0° (Epoch: 04 April)

Event Time Altitude Azimuth Distance (km) Brightness Sun altitude
Exits shadow 04:14:57 20° 279° (W) 1,871 3.4 -14.0°
Maximum altitude 04:18:25 40° 338° (NNW) 1,240 2.9 -13.6°
Drops below altitude 10° 04:23:46 10° 47° (NE) 2,478 5.3 -12.9°
Sets 04:26:23 0° 55° (NE) 3,413 6.3 -12.6°
